Weather History for CYXX - November, 2013

Change the Weather History Date:

Saturday, November 9, 2013

  Actual Average Record
Temperature  
Mean Temperature 42 °F -  
Max Temperature 48 °F 46 °F 59 °F (1996)
Min Temperature 36 °F 34 °F 34 °F (2012)
Degree Days  
Heating Degree Days 23    
Moisture  
Dew Point 41 °F    
Average Humidity 90    
Maximum Humidity 100    
Minimum Humidity 76    
Precipitation  
Precipitation 0.04 in 0.29 in - ()
Sea Level Pressure  
Sea Level Pressure 30.14 in    
Wind  
Wind Speed 3 mph ()    
Max Wind Speed 6 mph    
Max Gust Speed -    
Visibility 11.6 miles    
Events Fog , Rain    
Averages and records for this station are not official NWS values.
T = Trace of Precipitation, MM = Missing Value Source: Averaged Metar Reports

Daily Weather History Graph

Daily Weather History Graph

Search for Another Location

Airport or City:

Trip Planner

Search our weather history database for the weather conditions in past years. The results will help you decide how hot, cold, wet, or windy it might be!

Date:

Astronomy

Nov. 09, 2013 Rise Set
Actual Time 7:10 AM PST 4:35 PM PST
Civil Twilight 6:36 AM PST 5:09 PM PST
Nautical Twilight 5:58 AM PST 5:48 PM PST
Astronomical Twilight 5:20 AM PST 6:25 PM PST
Moon 12:44 PM PST (11/9) 11:20 PM PST (11/9)
Length of Visible Light 10h 33m
Length of Day
9h 25m
Waxing Crescent, 45% of the Moon is Illuminated
Nov 9
Waxing Crescent
Nov 9
First Quarter
Nov 17
Full
Nov 25
Last Quarter
Dec 2
New

Hourly Weather History & Observations

Time (PST) Temp. Windchill Dew Point Humidity Pressure Visibility Wind Dir Wind Speed Gust Speed Precip Events Conditions
12:00 AM 42.8 °F 41.1 °F 42.8 °F 100% 30.17 in 10.0 mi NNE 3.5 mph - N/A Rain Light Rain
1:00 AM 42.8 °F 40.1 °F 42.8 °F 100% 30.17 in 10.0 mi NNE 4.6 mph - N/A   Mostly Cloudy
2:00 AM 42.8 °F 40.1 °F 42.8 °F 100% 30.17 in 10.0 mi NNE 4.6 mph - N/A   Mostly Cloudy
3:00 AM 42.8 °F 41.1 °F 42.8 °F 100% 30.17 in 10.0 mi NE 3.5 mph - N/A   Mostly Cloudy
4:00 AM 43 °F - 42 °F 95% 30.16 in 10 mi NNE 3.5 mph - -   Partly Cloudy
4:00 AM 42.8 °F - 42.8 °F 100% 30.16 in 10.0 mi NNE 2.3 mph - N/A   Overcast
5:00 AM 42.8 °F 39.3 °F 41.0 °F 93% 30.16 in 10.0 mi NE 5.8 mph - N/A   Mostly Cloudy
6:00 AM 41.0 °F - 41.0 °F 100% 30.15 in 10.0 mi Calm Calm - N/A   Scattered Clouds
7:00 AM 37.4 °F 33.8 °F 35.6 °F 93% 30.15 in 30.0 mi East 4.6 mph - N/A Fog Shallow Fog
8:00 AM 39.2 °F - 39.2 °F 100% 30.15 in 30.0 mi NW 2.3 mph - N/A   Mostly Cloudy
9:00 AM 42.8 °F 39.3 °F 41.0 °F 93% 30.13 in 30.0 mi NNE 5.8 mph - N/A   Mostly Cloudy
10:00 AM 44 °F - 41 °F 86% 30.14 in 28 mi NNE 3.5 mph - -   Overcast
10:00 AM 44.6 °F 43.1 °F 41.0 °F 87% 30.14 in 30.0 mi ENE 3.5 mph - N/A   Overcast
11:00 AM 44.6 °F 43.1 °F 41.0 °F 87% 30.14 in 30.0 mi NNE 3.5 mph - N/A   Overcast
12:00 PM 46.4 °F 45.2 °F 41.0 °F 81% 30.12 in 30.0 mi NNE 3.5 mph - N/A   Overcast
1:00 PM 48.2 °F - 41.0 °F 76% 30.12 in 30.0 mi NNW 3.5 mph - N/A   Overcast
2:00 PM 48.2 °F - 41.0 °F 76% 30.11 in 25.0 mi North 5.8 mph - N/A   Overcast
3:00 PM 48.2 °F - 41.0 °F 76% 30.12 in 25.0 mi North 4.6 mph - N/A   Overcast
4:00 PM 47 °F - 42 °F 77% 30.12 in 25 mi North 2.3 mph - -   Overcast
4:00 PM 46.4 °F - 42.8 °F 87% 30.12 in 25.0 mi Calm Calm - N/A   Overcast
5:00 PM 46.4 °F - 41.0 °F 81% 30.12 in 20.0 mi NE 2.3 mph - N/A   Overcast
5:41 PM 46.4 °F 43.5 °F 42.8 °F 87% 30.13 in 15.0 mi North 5.8 mph - N/A Rain Light Rain
6:00 PM 46.4 °F - 42.8 °F 87% 30.13 in 15.0 mi NNE 2.3 mph - N/A Rain Light Rain
6:36 PM 44.6 °F 43.1 °F 41.0 °F 87% 30.13 in 15.0 mi East 3.5 mph - N/A   Overcast
7:00 PM 44.6 °F 42.2 °F 42.8 °F 93% 30.13 in 15.0 mi NNE 4.6 mph - N/A   Overcast
8:00 PM 44.6 °F 42.2 °F 42.8 °F 93% 30.14 in 10.0 mi NE 4.6 mph - N/A   Overcast
8:24 PM 46.4 °F 44.3 °F 42.8 °F 87% 30.14 in 10.0 mi NE 4.6 mph - N/A Rain Light Rain
9:00 PM 44.6 °F 42.2 °F 41.0 °F 87% 30.14 in 10.0 mi NE 4.6 mph - N/A   Overcast
10:00 PM 44 °F - 41 °F 85% 30.14 in 10 mi NNE 3.5 mph - -   Partly Cloudy
10:00 PM 42.8 °F 41.1 °F 41.0 °F 93% 30.14 in 10.0 mi NNE 3.5 mph - N/A   Mostly Cloudy
11:00 PM 42.8 °F 41.1 °F 41.0 °F 93% 30.15 in 10.0 mi NNE 3.5 mph - N/A   Overcast